Weather in Ust-Kada

Russia / Irkutsk Oblast     54°29′51″N   102°00′58″E
temp.,
°C
wind,
m/s
gust,
m/s
humid.,
%
clouds,
%
prec.,
mm/h
press.,
hPa
HPBL,
m
27 february, sat
sat2723:00−19s1297100 0.1 103022
02:00−18w41096100 0.4 1032836
05:00−22wnw3985100 0.0 1036344
08:00−25w2293100 0.0 103925
11:00−22wnw2685100 0.0 1039826
14:00−20sw2382100 0.1 1038919
17:00−20ssw2383100 0.0 1037609
20:00−24sse229099 0.0 103820
28 february, sun
sun2823:00−23sse2492100 0.0 104083
02:00−23s2493100 0.0 1039104
05:00−24sw1292100 0.0 103929
08:00−25s1294100 0.0 104020
11:00−21ssw1290100 0.0 1040208
14:00−18ssw2282100 0.0 1039541
17:00−17ssw2382100 0.0 1039489
20:00−21s2292100 0.0 103924
1 march, mon
mon123:00−22sse2589100 0.0 1038107
02:00−22s2589100 0.0 1037112
05:00−23sse2593100 0.0 1035133
08:00−24sse2296100 0.0 103331
11:00−20sse2492100 0.0 1029239
14:00−16sse2485100 0.0 1024381
17:00−15sse2488100 0.0 1021316
20:00−17se1292100 0.0 101922
2 march, tue
tue223:00−18ese1288100 0.0 101721
02:00−16ese0098100 0.3 101521
05:00−17sse1198100 0.1 101320
08:00−17ne0097100 0.1 101220
11:00−14nnw1293100 0.3 1012247
14:00−11nnw3490100 0.5 1014504
17:00−13n4689100 0.1 1015529
20:00−17n3793100 0.1 1019290
3 march, wed
wed323:00−21n2596100 0.0 1022133
02:00−23n239898 0.0 102384
05:00−25n239798 0.0 102381
08:00−28nne239699 0.0 102554
11:00−24nne249299 0.0 1024226
14:00−19nne248395 0.0 1022490
17:00−18ne348296 0.0 1022562
20:00−21ne249198 0.0 102490